Waarnemingen

Advertentie
Mijn weer
Gourette, Frankrijk (7775): temperatuur & dauwpunt: 11.10.2019 10:00:00 - 17.10.2019 10:00:00 (CEST)Gourette, Frankrijk (7775): windsnelheid & windstoten: 11.10.2019 10:00:00 - 17.10.2019 10:00:00 (CEST)Gourette, Frankrijk (7775): windrichting: 11.10.2019 10:00:00 - 17.10.2019 10:00:00 (CEST)Gourette, Frankrijk (7775): luchtdruk: 11.10.2019 10:00:00 - 17.10.2019 10:00:00 (CEST)Gourette, Frankrijk (7775): zicht: 11.10.2019 10:00:00 - 17.10.2019 10:00:00 (CEST)Gourette, Frankrijk (7775): neerslag: 11.10.2019 10:00:00 - 17.10.2019 10:00:00 (CEST)
Datum & Tijd tt [°C] td [°C] ff [km/u] ff [kn] fx [km/u] fx [kn] dd ppp [hPa] vv [km] rr [mm]
17.10.2019 10:00:00 17,6 13,5 10 6 13 7 ZZW 1020,5 - 0,0
17.10.2019 09:00:00 17,2 12,1 9 5 11 6 ZW 1020,1 - 0,0
17.10.2019 08:00:00 16,5 13,2 11 6 16 8 ZW 1019,8 - 0,0
17.10.2019 07:00:00 16,6 10,2 13 7 14 8 WZW 1019,5 - 0,0
17.10.2019 06:00:00 17,2 9,4 8 4 9 5 ZW 1019,9 - 0,0
17.10.2019 05:00:00 17,4 10,3 6 4 10 5 WZW 1019,7 15 0,0
17.10.2019 04:00:00 17,4 9,6 5 3 7 4 WZW 1019,8 - 0,0
17.10.2019 03:00:00 18,3 10,9 3 1 5 3 W 1020,2 - 0,0
17.10.2019 02:00:00 18,2 10,6 2 1 9 5 WZW 1020,0 - 0,0
17.10.2019 01:00:00 17,5 11,3 9 5 11 6 WZW 1020,0 - 0,0
17.10.2019 00:00:00 17,5 11,7 10 5 15 8 ZW 1019,9 - 0,0
16.10.2019 23:00:00 17,0 12,1 13 7 14 8 ZW 1019,7 - 0,0
16.10.2019 22:00:00 17,0 12,9 12 7 14 8 ZW 1019,5 - 0,0
16.10.2019 21:00:00 17,0 13,5 13 7 16 9 ZW 1019,5 - 0,0
16.10.2019 20:00:00 17,4 14,1 11 6 14 8 ZW 1019,3 - 0,0
16.10.2019 19:00:00 18,4 14,1 9 5 13 7 Z 1018,8 - 0,0
16.10.2019 18:00:00 19,9 13,6 8 4 15 8 ZO 1018,4 - 0,0
16.10.2019 17:00:00 21,6 13,2 5 3 16 9 ZZO 1018,0 15 0,0
16.10.2019 16:00:00 22,1 10,6 7 4 18 10 OZO 1017,9 - 0,0
16.10.2019 15:00:00 22,2 10,3 10 5 18 10 O 1017,8 - 0,0
16.10.2019 14:00:00 22,3 9,1 8 4 16 9 O 1017,7 - 0,0
16.10.2019 13:00:00 21,6 11,9 7 4 14 8 O 1018,1 - 0,0
16.10.2019 12:00:00 21,0 11,6 8 4 17 9 OZO 1018,0 - 0,0
16.10.2019 11:00:00 22,4 12,1 3 2 10 5 OZO 1017,5 - 0,0
16.10.2019 10:00:00 21,2 10,1 2 1 13 7 ZZW 1017,1 - 0,0
16.10.2019 09:00:00 19,1 9,0 10 5 17 9 NW 1016,7 - 0,0
16.10.2019 08:00:00 18,0 8,3 13 7 23 12 NW 1015,6 - 0,0
16.10.2019 07:00:00 18,0 7,4 11 6 17 9 NW 1015,3 - 0,0
16.10.2019 06:00:00 18,5 7,0 13 7 19 11 NW 1015,0 - 0,0
16.10.2019 05:00:00 18,3 5,2 8 5 15 8 WZW 1014,7 - 0,0
16.10.2019 04:00:00 16,7 5,6 9 5 14 7 W 1014,7 - 0,0
16.10.2019 03:00:00 17,3 4,3 12 7 45 24 W 1014,2 - 0,0
16.10.2019 02:00:00 17,9 6,7 32 17 58 31 ZW 1013,6 - 0,0
16.10.2019 01:00:00 17,5 6,7 18 10 35 19 ZW 1013,6 - 0,0
16.10.2019 00:00:00 18,2 6,1 28 15 51 27 ZW 1013,3 - 0,0
15.10.2019 23:00:00 17,1 5,7 17 9 33 18 ZW 1013,2 - 0,0
15.10.2019 22:00:00 19,6 2,0 6 3 37 20 ZZO 1013,4 - 0,0
15.10.2019 21:00:00 19,9 4,4 20 11 51 28 W 1012,2 - 0,0
15.10.2019 20:00:00 19,7 10,7 13 7 40 22 WZW 1011,5 - 0,0
15.10.2019 19:00:00 20,8 17,0 12 6 42 23 WNW 1011,1 - 0,0
15.10.2019 18:00:00 22,2 13,8 - - 41 22 - 1010,3 - 0,0
15.10.2019 17:00:00 23,9 21,4 10 6 24 13 ZW 1010,1 15 0,0
15.10.2019 16:00:00 22,2 19,9 16 9 26 14 ZW 1011,3 - 0,6
15.10.2019 15:00:00 22,7 19,3 18 10 27 15 ZZW 1010,7 - 0,2
15.10.2019 14:00:00 22,8 20,0 16 9 28 15 ZZW 1011,5 - 0,0
15.10.2019 13:00:00 21,5 20,5 18 10 39 21 ZZW 1012,7 - 1,6
15.10.2019 12:00:00 22,5 20,2 18 10 - - Z 1012,9 - 0,0
15.10.2019 11:00:00 21,7 19,8 19 10 31 17 ZZW 1013,3 - 0,0
15.10.2019 10:00:00 20,0 19,7 23 12 32 17 ZZW 1013,8 - 0,0
15.10.2019 09:00:00 19,4 18,9 13 7 36 20 ZW 1013,9 - 5,5
15.10.2019 08:00:00 19,8 18,8 12 7 40 21 ZZW 1013,8 - 0,0
15.10.2019 07:00:00 20,7 20,0 23 12 42 23 Z 1014,2 - 0,0
15.10.2019 06:00:00 20,7 20,0 21 11 37 20 ZZO 1014,6 - 0,0
15.10.2019 05:00:00 20,0 19,5 15 8 23 13 ZZW 1015,3 6 0,0
15.10.2019 04:00:00 19,9 19,4 18 10 27 15 ZZW 1015,6 - 0,6
15.10.2019 03:00:00 20,0 19,5 16 9 23 12 ZZW 1016,4 - 0,0
15.10.2019 02:00:00 20,2 19,9 17 9 25 13 ZZW 1017,0 - 0,0
15.10.2019 01:00:00 20,5 20,2 17 9 24 13 Z 1017,2 - 0,0
15.10.2019 00:00:00 20,6 20,3 18 10 28 15 Z 1017,7 - 0,0
14.10.2019 23:00:00 20,9 20,4 18 10 27 15 Z 1018,0 - 0,0
14.10.2019 22:00:00 21,0 20,5 20 11 36 19 Z 1017,9 - 0,0
14.10.2019 21:00:00 21,2 20,7 20 11 31 17 ZZO 1017,8 - 0,0
14.10.2019 20:00:00 21,2 20,5 16 9 32 18 ZZO 1018,0 - 0,0
14.10.2019 19:00:00 21,2 20,5 21 11 35 19 ZZO 1017,8 - 0,0
14.10.2019 18:00:00 21,4 20,7 19 11 31 17 ZZO 1017,7 - 0,0
14.10.2019 17:00:00 21,4 20,6 17 9 32 17 ZZO 1018,2 6 0,0
14.10.2019 16:00:00 21,7 20,5 20 11 32 17 ZZO 1018,6 - 0,0
14.10.2019 15:00:00 22,7 21,0 22 12 36 19 ZZO 1018,7 - 0,0
14.10.2019 14:00:00 22,8 21,3 22 12 35 19 ZZO 1019,2 8 0,0
14.10.2019 13:00:00 21,6 20,6 22 12 35 19 ZZO 1019,9 - 0,0
14.10.2019 12:00:00 22,8 19,6 12 6 29 15 Z 1020,4 - 0,0
14.10.2019 11:00:00 23,0 19,6 - - 27 15 - 1020,4 - 0,0
14.10.2019 10:00:00 21,3 19,0 11 6 18 10 ZZW 1020,4 - 0,0
14.10.2019 09:00:00 20,5 19,0 12 6 19 10 ZZW 1020,3 - 0,0
14.10.2019 08:00:00 19,6 18,3 13 7 24 13 ZZW 1019,9 - 0,0
14.10.2019 07:00:00 19,3 18,0 20 11 24 13 ZW 1019,9 - 0,0
14.10.2019 06:00:00 19,2 17,9 18 10 25 14 ZW 1020,0 - 0,0
14.10.2019 05:00:00 18,8 17,5 17 9 19 10 ZW 1020,2 10 0,0
14.10.2019 04:00:00 19,8 17,8 10 6 15 8 ZZW 1020,3 - 0,0
14.10.2019 03:00:00 19,4 17,7 14 7 16 9 ZZW 1020,6 - 0,0
14.10.2019 02:00:00 19,1 17,2 13 7 17 9 ZW 1021,1 - 0,0
14.10.2019 01:00:00 19,0 17,0 15 8 17 9 ZZW 1021,1 - 0,0
14.10.2019 00:00:00 18,8 16,8 14 8 19 10 ZZW 1021,5 - 0,0
13.10.2019 23:00:00 18,7 16,7 13 7 17 9 ZZW 1021,6 - 0,0
13.10.2019 22:00:00 18,9 16,9 13 7 16 9 ZZW 1021,7 - 0,0
13.10.2019 21:00:00 18,6 17,8 12 7 14 8 ZW 1021,5 - 0,0
13.10.2019 20:00:00 19,7 18,9 10 5 12 7 ZZW 1021,7 15 0,0
13.10.2019 19:00:00 20,6 19,4 8 5 14 8 Z 1021,6 - 0,0
13.10.2019 18:00:00 21,0 19,3 11 6 21 12 Z 1021,6 - 0,0
13.10.2019 17:00:00 21,2 19,5 15 8 28 15 Z 1021,4 15 0,0
13.10.2019 16:00:00 21,2 19,3 17 9 31 17 ZZO 1021,7 - 0,0
13.10.2019 15:00:00 21,5 19,6 - - 35 19 - 1021,6 - 0,0
13.10.2019 14:00:00 21,5 19,6 21 12 34 18 ZZO 1022,2 15 0,0
13.10.2019 13:00:00 21,4 19,1 20 11 32 17 ZZO 1022,9 - 0,0
13.10.2019 12:00:00 21,0 17,8 12 7 21 11 ZZO 1023,0 - 0,0
13.10.2019 11:00:00 20,6 17,6 16 9 22 12 ZZW 1023,0 - 0,0
13.10.2019 10:00:00 19,9 17,5 14 8 21 12 ZZW 1023,0 - 0,0
13.10.2019 09:00:00 19,5 17,5 16 9 24 13 ZZW 1022,7 - 0,0
13.10.2019 08:00:00 18,0 16,5 15 8 20 11 ZZW 1022,4 15 0,0
13.10.2019 07:00:00 17,9 16,4 14 8 21 11 ZZW 1022,2 - 0,0
13.10.2019 06:00:00 17,9 16,4 15 8 20 11 ZW 1022,4 - 0,0
13.10.2019 05:00:00 17,7 16,0 15 8 21 12 ZZW 1022,3 15 0,0
13.10.2019 04:00:00 17,8 16,0 16 8 20 11 ZZW 1022,4 - 0,0
13.10.2019 03:00:00 17,9 16,1 14 7 21 11 ZZW 1022,6 - 0,0
13.10.2019 02:00:00 18,3 16,1 14 8 18 10 ZZW 1022,8 - 0,0
13.10.2019 01:00:00 18,6 16,7 11 6 18 10 ZZW 1022,8 - 0,0
13.10.2019 00:00:00 18,7 17,2 14 8 18 10 ZZW 1023,0 - 0,0
12.10.2019 23:00:00 18,8 17,5 14 8 20 11 ZZW 1022,9 - 0,0
12.10.2019 22:00:00 18,7 17,4 13 7 16 9 ZZW 1023,0 - 0,0
12.10.2019 21:00:00 18,3 17,0 13 7 16 9 ZZW 1023,2 - 0,0
12.10.2019 20:00:00 18,8 16,9 13 7 18 10 ZZW 1022,9 20 0,0
12.10.2019 19:00:00 19,4 17,0 13 7 21 11 Z 1022,7 - 0,0
12.10.2019 18:00:00 20,1 16,9 13 7 23 12 Z 1022,6 - 0,0
12.10.2019 17:00:00 20,7 16,7 13 7 25 13 ZZO 1022,5 20 0,0
12.10.2019 16:00:00 21,0 16,8 13 7 27 15 ZZO 1022,7 - 0,0
12.10.2019 15:00:00 22,1 16,1 18 10 29 16 ZO 1022,5 - 0,0
12.10.2019 14:00:00 22,8 16,1 16 9 31 17 ZO 1022,8 - 0,0
12.10.2019 13:00:00 22,7 16,3 16 8 27 14 ZO 1023,3 - 0,0
12.10.2019 12:00:00 22,5 16,3 14 8 24 13 ZO 1023,4 - 0,0
12.10.2019 11:00:00 22,8 17,3 9 5 18 10 ZZO 1023,3 - 0,0
12.10.2019 10:00:00 21,6 16,1 10 5 14 8 Z 1023,2 - 0,0
12.10.2019 09:00:00 18,9 15,2 10 5 14 7 ZW 1022,7 - 0,0
12.10.2019 08:00:00 17,1 14,4 13 7 15 8 ZW 1022,5 25 0,0
12.10.2019 07:00:00 17,1 14,4 13 7 14 7 ZW 1022,3 - 0,0
12.10.2019 06:00:00 17,6 14,5 5 3 6 4 WZW 1022,5 - 0,0
12.10.2019 05:00:00 17,9 14,6 0 0 9 5 N 1022,5 - 0,0
12.10.2019 04:00:00 18,3 14,4 8 5 13 7 NW 1022,5 - 0,0
12.10.2019 03:00:00 17,8 14,1 11 6 15 8 NNW 1022,7 - 0,0
12.10.2019 02:00:00 18,0 14,1 10 5 16 8 NNW 1022,8 - 0,0
12.10.2019 01:00:00 18,3 15,2 6 4 10 5 WZW 1022,8 - 0,0
12.10.2019 00:00:00 18,2 15,1 9 5 16 8 WZW 1022,9 - 0,0
11.10.2019 23:00:00 17,8 15,2 6 3 13 7 ZW 1022,8 - 0,0
11.10.2019 22:00:00 17,7 15,7 10 6 16 9 ZW 1022,4 - 0,0
11.10.2019 21:00:00 18,0 15,8 15 8 16 9 ZZW 1022,1 - 0,0
11.10.2019 20:00:00 18,6 15,8 12 6 14 8 ZZW 1022,0 - 0,0
11.10.2019 19:00:00 19,7 16,0 11 6 16 8 Z 1021,9 - 0,0
11.10.2019 18:00:00 20,5 15,9 9 5 18 10 Z 1021,9 - 0,0
11.10.2019 17:00:00 22,0 15,8 12 6 19 10 ZZO 1021,8 25 0,0
11.10.2019 16:00:00 21,9 16,6 6 4 18 10 OZO 1021,9 - 0,0
11.10.2019 15:00:00 21,8 16,7 9 5 19 11 OZO 1022,1 - 0,0
11.10.2019 14:00:00 22,7 16,7 12 7 22 12 OZO 1022,4 20 0,0
11.10.2019 13:00:00 22,3 16,8 14 7 22 12 O 1022,6 - 0,0
11.10.2019 12:00:00 22,5 16,5 11 6 18 10 O 1022,7 - 0,0
11.10.2019 11:00:00 22,6 15,9 8 4 15 8 O 1022,6 - 0,0
11.10.2019 10:00:00 22,2 15,8 4 2 11 6 N 1022,5 - 0,0

tt = temperatuur
td = dauwpunt
ff = windsnelheid
fx = windstoten
dd = windrichting
ppp = luchtdruk
vv = zicht
rr = neerslag

Weerstations in de omgeving